FW8609 Weather Reports


time (UTC)temp
C
wind
direction
speed
KPH
gust
KPH
rain 1hr
cm
rain 24hr
cm
rain mn
cm
humidity
%
barometer
mb
20260502130255 11 187 11.3 16.1 0.00 0.00 0.00 94 1012.4
20260502123740 11 187 12.9 16.1 0.00 0.00 0.00 94 1012.3
20260502123237 11 182 12.9 16.1 0.00 0.00 0.00 94 1012.5
20260502122734 11 180 12.9 14.5 0.00 0.00 0.00 94 1012.6
20260502122230 11 182 11.3 16.1 0.00 0.00 0.00 94 1012.3
20260502121728 11 184 14.5 16.1 0.00 0.00 0.00 94 1012.7
20260502121226 11 186 12.9 16.1 0.00 0.00 0.00 94 1012.6
20260502120722 11 188 11.3 14.5 0.00 0.00 0.00 93 1012.7
20260502120219 11 191 11.3 14.5 0.00 0.00 0.00 93 1012.7
20260502115717 11 189 12.9 16.1 0.00 0.00 0.00 93 1012.8
20260502115213 11 202 14.5 17.7 0.00 0.00 0.00 94 1012.9
20260502114709 11 184 14.5 16.1 0.00 0.00 0.00 93 1012.8
20260502114207 11 174 16.1 16.1 0.00 0.00 0.00 94 1012.6
20260502113704 11 182 12.9 17.7 0.00 0.00 0.00 93 1012.7
20260502113201 11 178 14.5 16.1 0.00 0.00 0.00 93 1012.6
20260502112659 11 172 14.5 14.5 0.00 0.00 0.00 93 1012.5
20260502112156 11 185 11.3 14.5 0.00 0.00 0.00 93 1012.5
20260502111654 11 187 11.3 12.9 0.00 0.00 0.00 93 1012.6
20260502111151 11 184 12.9 14.5 0.00 0.00 0.00 93 1012.7
20260502110649 11 186 12.9 14.5 0.00 0.00 0.00 94 1012.7
20260502110146 11 178 12.9 14.5 0.00 0.00 0.00 94 1012.5
20260502105643 11 182 14.5 14.5 0.00 0.00 0.00 94 1012.6
20260502105140 11 187 12.9 16.1 0.00 0.00 0.00 94 1012.5
20260502104637 11 187 12.9 16.1 0.00 0.00 0.00 94 1012.7
20260502104135 11 186 12.9 16.1 0.00 0.00 0.00 94 1012.6
20260502103632 11 190 14.5 17.7 0.00 0.00 0.00 94 1012.7
20260502103130 11 186 12.9 14.5 0.00 0.00 0.00 94 1012.7
20260502102627 11 185 14.5 16.1 0.00 0.00 0.00 94 1012.5
20260502102123 11 185 12.9 14.5 0.00 0.00 0.00 94 1012.5
20260502101621 11 188 12.9 16.1 0.00 0.00 0.00 94 1012.7
20260502101120 11 194 12.9 14.5 0.00 0.00 0.00 94 1012.8
20260502100618 11 185 9.7 14.5 0.00 0.00 0.00 94 1012.8
20260502100116 11 190 12.9 14.5 0.00 0.00 0.00 95 1012.7
20260502091044 10 185 12.9 16.1 0.00 0.00 0.00 96 1013.4
20260502090541 10 182 12.9 16.1 0.00 0.00 0.00 96 1013.3
20260502071441 10 185 16.1 17.7 0.00 0.00 0.00 96 1013.9
20260502070939 10 184 16.1 19.3 0.00 0.00 0.00 96 1014.1
20260502070437 10 186 17.7 19.3 0.00 0.00 0.00 96 1014.2
20260502065935 10 185 11.3 17.7 0.00 0.00 0.00 96 1014.3
20260502065433 10 192 16.1 17.7 0.00 0.00 0.00 96 1014.1
20260502064931 10 188 12.9 16.1 0.00 0.00 0.00 95 1014.2
20260502064428 10 192 11.3 14.5 0.00 0.00 0.00 95 1014.4
20260502063920 10 194 12.9 16.1 0.00 0.00 0.00 95 1014.4
20260502063418 10 187 11.3 16.1 0.00 0.00 0.00 95 1014.1
20260502062915 10 193 11.3 14.5 0.00 0.00 0.00 95 1014.5
20260502062412 10 188 14.5 16.1 0.00 0.00 0.00 95 1014.3
20260502061911 10 185 14.5 17.7 0.00 0.00 0.00 95 1014.4
20260502061409 10 186 12.9 16.1 0.00 0.00 0.00 95 1014.5
20260502060904 10 188 11.3 16.1 0.00 0.00 0.00 95 1014.6
20260502060359 10 191 14.5 14.5 0.00 0.00 0.00 95 1014.4
20260502055857 10 198 14.5 16.1 0.00 0.00 0.00 95 1014.6
20260502055354 10 196 14.5 17.7 0.00 0.00 0.00 95 1014.7
20260502054854 10 187 12.9 16.1 0.00 0.00 0.00 95 1014.5
20260502054351 10 190 14.5 16.1 0.00 0.00 0.00 95 1014.7
20260502053848 10 190 14.5 16.1 0.00 0.00 0.00 94 1014.7
20260502053345 10 192 12.9 14.5 0.00 0.00 0.00 94 1014.5
20260502052843 10 190 12.9 14.5 0.00 0.00 0.00 94 1014.7
20260502052341 10 192 12.9 14.5 0.00 0.00 0.00 94 1014.8
20260502051838 10 194 14.5 14.5 0.00 0.00 0.00 94 1015.1
20260502051337 10 190 12.9 14.5 0.00 0.00 0.00 94 1014.9
20260502050833 10 189 12.9 14.5 0.00 0.00 0.00 94 1014.7
20260502050330 10 190 14.5 14.5 0.00 0.00 0.00 94 1015.0
20260502045827 10 189 12.9 16.1 0.00 0.00 0.00 93 1014.7
20260502045323 10 187 14.5 16.1 0.00 0.00 0.00 93 1015.0
20260502044820 10 189 12.9 16.1 0.00 0.00 0.00 93 1014.8
20260502044316 10 185 14.5 14.5 0.00 0.00 0.00 93 1014.9
20260502043814 11 183 12.9 14.5 0.00 0.00 0.00 93 1015.0
20260502043311 11 183 11.3 14.5 0.00 0.00 0.00 92 1014.9
20260502042810 11 186 12.9 14.5 0.00 0.00 0.00 92 1014.8
20260502042308 11 186 12.9 14.5 0.00 0.00 0.00 92 1014.7
20260502041806 11 183 12.9 14.5 0.00 0.00 0.00 92 1014.7
20260502041303 11 189 12.9 14.5 0.00 0.00 0.00 92 1014.7
20260502040800 11 187 12.9 12.9 0.00 0.00 0.00 92 1014.8
20260502040257 11 186 9.7 14.5 0.00 0.00 0.00 91 1014.6
20260502035753 11 185 11.3 12.9 0.00 0.00 0.00 91 1014.5
20260502035249 11 185 11.3 14.5 0.00 0.00 0.00 90 1014.6
20260502034747 11 180 9.7 14.5 0.00 0.00 0.00 90 1014.4
20260502034245 11 191 9.7 14.5 0.00 0.00 0.00 89 1014.6
20260502033743 11 183 12.9 12.9 0.00 0.00 0.00 90 1014.4
20260502033240 11 196 11.3 12.9 0.00 0.00 0.00 89 1014.4
20260502032737 12 180 9.7 12.9 0.00 0.00 0.00 89 1014.3
20260502032233 12 182 12.9 14.5 0.00 0.00 0.00 88 1014.1
20260502031731 12 180 11.3 14.5 0.00 0.00 0.00 87 1014.2
20260502031229 12 189 12.9 17.7 0.00 0.00 0.00 87 1014.3
20260502030727 12 183 14.5 16.1 0.00 0.00 0.00 87 1014.3
20260502030225 12 200 12.9 19.3 0.00 0.00 0.00 87 1013.9
20260502025721 12 184 14.5 16.1 0.00 0.00 0.00 86 1014.2
20260502025220 12 201 14.5 16.1 0.00 0.00 0.00 86 1014.1
20260502024717 12 197 12.9 17.7 0.00 0.00 0.00 85 1014.0
20260502024215 13 189 14.5 17.7 0.00 0.00 0.00 85 1013.8
20260502023713 13 188 11.3 14.5 0.00 0.00 0.00 84 1014.0
20260502023210 13 180 14.5 17.7 0.00 0.00 0.00 84 1013.8
20260502022708 13 185 16.1 16.1 0.00 0.00 0.00 84 1014.0
20260502022204 13 191 17.7 17.7 0.00 0.00 0.00 84 1014.1
20260502021701 13 180 16.1 17.7 0.00 0.00 0.00 83 1013.9
20260502021158 13 182 16.1 17.7 0.00 0.00 0.00 83 1014.1
20260502020655 13 184 16.1 17.7 0.00 0.00 0.00 82 1014.0
20260502020152 13 185 19.3 20.9 0.00 0.00 0.00 82 1014.0
20260502015650 14 191 17.7 19.3 0.00 0.00 0.00 82 1014.2
20260502015146 13 192 19.3 24.1 0.00 0.00 0.00 82 1014.2
20260502014644 14 194 19.3 24.1 0.00 0.00 0.00 80 1014.3
20260502014141 15 189 20.9 20.9 0.00 0.00 0.00 77 1014.1
20260502013637 15 195 17.7 22.5 0.00 0.00 0.00 78 1014.1
20260502013132 16 188 16.1 20.9 0.00 0.00 0.00 75 1014.2
20260502012630 16 184 14.5 20.9 0.00 0.00 0.00 75 1014.1
20260502012128 15 180 17.7 19.3 0.00 0.00 0.00 77 1014.2
20260502011624 15 192 16.1 20.9 0.00 0.00 0.00 79 1014.2
20260502011120 15 180 22.5 22.5 0.00 0.00 0.00 79 1014.1
20260502010618 16 188 12.9 17.7 0.00 0.00 0.00 76 1013.9
20260502010114 16 191 16.1 20.9 0.00 0.00 0.00 76 1014.3
20260502005612 16 188 16.1 20.9 0.00 0.00 0.00 76 1014.1
20260502005110 16 194 16.1 19.3 0.00 0.00 0.00 74 1014.1
20260502004605 17 197 17.7 20.9 0.00 0.00 0.00 73 1014.2
20260502004102 17 195 17.7 19.3 0.00 0.00 0.00 73 1014.5
20260502003600 17 191 19.3 20.9 0.00 0.00 0.00 73 1014.2
20260502003056 17 180 14.5 20.9 0.00 0.00 0.00 75 1014.1
20260502002553 17 182 16.1 19.3 0.00 0.00 0.00 74 1014.3
20260502002050 17 173 12.9 16.1 0.00 0.00 0.00 73 1014.4
20260502001548 17 170 14.5 17.7 0.00 0.00 0.00 72 1014.2
20260502001045 17 198 19.3 20.9 0.00 0.00 0.00 73 1014.2
20260502000543 17 189 16.1 17.7 0.00 0.00 0.00 73 1014.3
20260502000040 16 183 16.1 19.3 0.00 0.00 0.00 75 1014.4
20260501235535 16 198 19.3 19.3 0.00 0.00 0.00 75 1014.3
20260501235031 16 208 16.1 19.3 0.00 0.00 0.00 75 1014.5
20260501234527 16 186 17.7 19.3 0.00 0.00 0.00 75 1014.3
20260501234026 16 208 16.1 20.9 0.00 0.00 0.00 76 1014.5
20260501233523 15 198 20.9 32.2 0.00 0.00 0.00 78 1014.7
20260501233020 16 191 17.7 22.5 0.00 0.00 0.00 77 1014.4
20260501232516 16 192 17.7 20.9 0.00 0.00 0.00 75 1014.7
20260501232014 17 193 17.7 20.9 0.00 0.00 0.00 73 1014.6
20260501231512 17 194 16.1 20.9 0.00 0.00 0.00 73 1014.4
20260501231010 17 192 16.1 20.9 0.00 0.00 0.00 73 1014.6
20260501230508 17 189 17.7 19.3 0.00 0.00 0.00 72 1014.5
20260501230005 16 191 17.7 24.1 0.00 0.00 0.00 74 1014.8
20260501225503 16 199 11.3 20.9 0.00 0.00 0.00 74 1014.6
20260501224958 17 188 17.7 20.9 0.00 0.00 0.00 73 1014.8
20260501224457 17 194 16.1 19.3 0.00 0.00 0.00 75 1015.1
20260501223953 16 166 16.1 22.5 0.00 0.00 0.00 76 1014.9
20260501223449 17 181 16.1 16.1 0.00 0.00 0.00 74 1015.0
20260501222945 16 173 14.5 19.3 0.00 0.00 0.00 76 1015.2
20260501222442 17 161 11.3 19.3 0.00 0.00 0.00 75 1015.2
20260501221938 16 175 19.3 20.9 0.00 0.00 0.00 77 1015.3
20260501221436 16 180 19.3 20.9 0.00 0.00 0.00 76 1015.2
20260501220934 16 190 17.7 19.3 0.00 0.00 0.00 78 1015.4
20260501220431 15 173 11.3 24.1 0.00 0.00 0.00 78 1015.4
20260501215927 15 170 16.1 24.1 0.00 0.00 0.00 78 1015.5
20260501215424 15 169 16.1 20.9 0.00 0.00 0.00 78 1015.9
20260501214919 15 172 17.7 20.9 0.00 0.00 0.00 80 1015.8
20260501214415 15 179 16.1 22.5 0.00 0.00 0.00 79 1015.9
20260501213910 15 171 17.7 22.5 0.00 0.00 0.00 80 1016.1
20260501213408 15 176 19.3 24.1 0.00 0.00 0.00 83 1016.1
20260501212903 14 190 20.9 24.1 0.00 0.00 0.00 81 1016.2
20260501212400 14 199 20.9 22.5 0.00 0.00 0.00 81 1016.2
20260501211857 13 191 22.5 24.1 0.00 0.00 0.00 82 1016.0
20260501211354 13 193 17.7 24.1 0.00 0.00 0.00 83 1016.1
20260501210852 13 197 19.3 24.1 0.00 0.00 0.00 82 1016.2
20260501210348 13 198 19.3 27.4 0.00 0.00 0.00 83 1016.4
20260501205845 13 190 12.9 24.1 0.00 0.00 0.00 82 1016.3
20260501205342 13 194 20.9 24.1 0.00 0.00 0.00 84 1016.3
20260501204839 13 187 20.9 24.1 0.00 0.00 0.00 83 1016.3
20260501204335 13 194 14.5 24.1 0.00 0.00 0.00 83 1016.3
20260501203831 13 206 20.9 22.5 0.00 0.00 0.00 83 1016.4
20260501203329 13 193 17.7 24.1 0.00 0.00 0.00 83 1016.5
20260501202825 13 191 22.5 24.1 0.00 0.00 0.00 83 1016.5
20260501202322 13 190 22.5 25.7 0.00 0.00 0.00 83 1016.5
20260501201820 13 196 19.3 24.1 0.00 0.00 0.00 82 1016.3
20260501201316 14 178 20.9 20.9 0.00 0.00 0.00 82 1016.5
20260501200813 13 197 19.3 22.5 0.00 0.00 0.00 82 1016.4
20260501200310 13 198 20.9 22.5 0.00 0.00 0.00 82 1016.5
20260501195808 14 185 12.9 20.9 0.00 0.00 0.00 81 1016.5
20260501195305 13 183 16.1 22.5 0.00 0.00 0.00 82 1016.6
20260501194759 13 183 17.7 24.1 0.00 0.00 0.00 83 1016.8
20260501194255 13 192 17.7 24.1 0.00 0.00 0.00 83 1016.8
20260501193752 13 182 16.1 20.9 0.00 0.00 0.00 83 1016.6
20260501193250 13 189 20.9 22.5 0.00 0.00 0.00 84 1016.8
20260501192747 13 193 19.3 22.5 0.00 0.00 0.00 85 1016.9
20260501192244 13 190 17.7 24.1 0.00 0.00 0.00 84 1016.7
20260501191742 13 188 19.3 22.5 0.00 0.00 0.00 85 1016.9
20260501191239 13 185 20.9 22.5 0.00 0.00 0.00 85 1016.7
20260501190735 13 186 16.1 20.9 0.00 0.00 0.00 84 1016.8
20260501190231 13 191 19.3 27.4 0.00 0.00 0.00 85 1017.1
20260501185727 13 185 19.3 20.9 0.00 0.00 0.00 85 1017.1
20260501185223 13 194 14.5 22.5 0.00 0.00 0.00 85 1017.2
20260501184719 12 191 14.5 22.5 0.00 0.00 0.00 85 1016.9
20260501184215 12 191 17.7 20.9 0.00 0.00 0.00 86 1017.2
20260501183711 13 181 17.7 24.1 0.00 0.00 0.00 85 1017.1
20260501183208 13 183 19.3 20.9 0.00 0.00 0.00 86 1017.2
20260501182704 13 192 19.3 22.5 0.00 0.00 0.00 86 1017.0
20260501182201 13 193 20.9 20.9 0.00 0.00 0.00 85 1017.2
20260501181658 12 199 17.7 20.9 0.00 0.00 0.00 86 1017.1
20260501181155 12 210 20.9 20.9 0.00 0.00 0.00 86 1017.1
20260501180653 12 191 16.1 20.9 0.00 0.00 0.00 87 1017.3
20260501180149 12 197 16.1 20.9 0.00 0.00 0.00 87 1017.1
20260501175646 12 185 17.7 20.9 0.00 0.00 0.00 88 1017.2
20260501175143 12 189 17.7 20.9 0.00 0.00 0.00 88 1017.4
20260501174639 12 213 22.5 22.5 0.00 0.00 0.00 87 1017.4
20260501174137 12 190 16.1 19.3 0.00 0.00 0.00 87 1017.1
20260501173635 12 188 14.5 17.7 0.00 0.00 0.00 87 1017.2
20260501173131 12 196 16.1 19.3 0.00 0.00 0.00 88 1017.0
20260501172627 12 188 17.7 24.1 0.00 0.00 0.00 89 1017.0
20260501172122 12 183 19.3 20.9 0.00 0.00 0.00 89 1017.1
20260501171619 12 202 16.1 20.9 0.00 0.00 0.00 89 1017.1
20260501171116 12 187 17.7 19.3 0.00 0.00 0.00 89 1017.1
20260501170613 12 193 14.5 19.3 0.00 0.00 0.00 89 1016.7
20260501170109 12 189 14.5 22.5 0.00 0.00 0.00 89 1016.8
20260501165607 12 191 17.7 19.3 0.00 0.00 0.00 89 1016.9
20260501165104 12 184 14.5 19.3 0.00 0.00 0.00 89 1016.8
20260501164602 12 191 17.7 19.3 0.00 0.00 0.00 89 1017.0
20260501164058 12 191 17.7 19.3 0.00 0.00 0.00 90 1016.8
20260501163555 12 195 16.1 17.7 0.00 0.00 0.00 89 1016.9
20260501163052 12 190 14.5 17.7 0.00 0.00 0.00 89 1017.0
20260501162549 11 186 14.5 19.3 0.00 0.00 0.00 91 1017.1
20260501162045 12 189 17.7 19.3 0.00 0.00 0.00 91 1016.8
20260501161543 11 181 17.7 19.3 0.00 0.00 0.00 90 1017.0
20260501161039 12 180 17.7 19.3 0.00 0.00 0.00 90 1016.8
20260501160536 11 184 14.5 17.7 0.00 0.00 0.00 91 1016.9
20260501160033 11 186 16.1 19.3 0.00 0.00 0.00 91 1016.7
20260501155529 11 190 16.1 17.7 0.00 0.00 0.00 91 1016.9
20260501155027 11 194 16.1 19.3 0.00 0.00 0.00 91 1017.0
20260501154524 11 196 14.5 17.7 0.00 0.00 0.00 91 1016.7
20260501154020 11 190 12.9 16.1 0.00 0.00 0.00 91 1016.8
20260501153519 11 208 14.5 19.3 0.00 0.00 0.00 92 1016.8
20260501153014 11 191 17.7 19.3 0.00 0.00 0.00 92 1016.8
20260501152512 11 197 16.1 19.3 0.00 0.00 0.00 92 1016.6
20260501152009 11 199 14.5 17.7 0.00 0.00 0.00 92 1016.7
20260501151506 11 188 12.9 17.7 0.00 0.00 0.00 92 1016.4
20260501151003 11 195 14.5 17.7 0.00 0.00 0.00 92 1016.6
20260501150457 11 182 11.3 14.5 0.00 0.00 0.00 92 1016.5
20260501145954 11 183 12.9 14.5 0.00 0.00 0.00 93 1016.4
20260501145450 11 177 11.3 14.5 0.00 0.00 0.00 92 1016.5
20260501144949 11 196 12.9 17.7 0.00 0.00 0.00 93 1016.5
20260501144444 11 197 11.3 16.1 0.00 0.00 0.00 93 1016.4